UFO 8 (USA 138)

Last updated on Sat Jun 17 2023 00:02:44 GMT+0000 (Coordinated Universal Time)

1 25258U 98016A 23167.56634471 -.00000170 00000+0 00000+0 0 9998 2 25258 9.8281 28.3945 0001223 106.3613 235.7823 1.00391636 92854
UTC large
Height (km)
Speed (km/s)
/
Latitude / Longitude
Inclination (degrees)
Orbital Period (minutes)
Azimuth
Elevation
Range (km)
Doppler Factor

Next 0 passes for location: London (51.5072 / 0.1276)

Sorry there are no passes over London.
UFO 8 (USA 138)